Weather in Volynshchino

Russia / Ryazan Oblast     53°37′04″N   40°32′07″E
temp.,
°C
wind,
m/s
gust,
m/s
humid.,
%
clouds,
%
prec.,
mm/h
press.,
hPa
HPBL,
m
4 march, thu
thu400:00−2w61294100 0.3 1012613
03:00−3wsw61391100 0.4 1010453
06:00−1wsw81492100 0.0 1007614
09:00−2wsw81591100 0.1 1006536
12:000wsw91585100 0.0 1004803
15:000wsw81387100 0.0 1002864
18:00−1wsw61294100 0.1 1002697
21:00−1w51195100 0.3 1001625
5 march, fri
fri500:00−2w41096100 0.3 1001401
03:00−3wnw3797100 1.1 1002290
06:00−5nnw3696100 0.5 1004180
09:00−6nw369794 0.5 1007164
12:00−5nw359017 0.0 1009327
15:00−4wnw359010 0.0 1011454
18:00−6w349335 0.0 101248
21:00−8w339355 0.0 101429
6 march, sat
sat600:00−10wnw229297 0.0 101521
03:00−11nw129199 0.0 101621
06:00−12nne119293 0.0 101621
09:00−10e129171 0.0 101621
12:00−7se128976 0.0 1015182
15:00−6s019075 0.0 1015187
18:00−8nw0096100 0.1 101421
21:00−10w229690 0.1 101621
7 march, sun
sun700:00−9wnw369664 0.2 1016136
03:00−13wnw349663 0.2 101650
06:00−14sw410910 0.0 1015159
09:00−9sw8158645 0.0 1012464
12:00−5sw101679100 0.0 1008904
15:00−4sw111893100 0.4 10031254
18:00−3wsw101894100 1.6 10011127
21:00−5wnw61382100 3.1 1002730
8 march, mon
mon800:00−11wsw447656 0.0 100344
03:00−10sw5108528 0.0 1003172
06:00−7sw5129367 0.0 1000471
09:00−5sw7139083 0.0 998683
12:00−7wnw9147892 0.3 10001288
15:00−8w9157991 0.4 10041433
18:00−9w71481100 0.1 1008646
21:00−12w498968 0.1 1011142